Regional Weather Roundup
Issued by NWS

Home | Current Version | Previous Version | Text Only | Print | Product List | Glossary Off
Versions: 1 2 3 4 5 6 7 8 9 10 11 12 13 14 15 16 17 18 19 20 21 22 23 24 25 26 27 28 29 30 31 32 33 34 35 36 37 38 39 40 41 42 43 44 45 46 47 48 49 50

000
ASUS45 KBOU 060607
RWRCO

WEATHER ROUNDUP FOR COLORADO
NATIONAL WEATHER SERVICE DENVER/BOULDER CO
1100 PM MST THU MAR 05 2015

NOTE: "FAIR" INDICATES FEW OR NO CLOUDS BELOW 12000 FEET WITH NO
SIGNIFICANT WEATHER AND/OR OBSTRUCTIONS TO VISIBILITY.

COZ001>005-013-030-031-060700-
...NORTHWEST COLORADO...

CITY           SKY/WX    TMP DP  RH WIND       PRES   REMARKS
CRAIG          PTCLDY    17  12  80 CALM      30.40
HAYDEN         PTCLDY    19   9  63 SE12      30.38S WCI   7
MEEKER         CLEAR     27  17  66 NE5       30.40S WCI  22
MOUNT WERNER   NOT AVBL
STEAMBOAT SPGS PTCLDY    15   9  75 N3        30.39S
WALDEN         PTCLDY    12   3  67 SE8       30.33S WCI   1
$$

COZ006>008-011-060700-
...WEST CENTRAL VALLEYS...

CITY           SKY/WX    TMP DP  RH WIND       PRES   REMARKS
GRAND JUNCTION PTCLDY    29  20  69 E7        30.42S WCI  22
MONTROSE       PTCLDY    29  19  66 SE9       30.45S WCI  20
EAGLE          CLEAR     23  18  80 VRB5      30.44S WCI  17
RIFLE          PTCLDY    28  18  66 CALM      30.43S
DELTA          PTCLDY    30  23  73 NE6       30.44S WCI  24
NUCLA          PTCLDY    30  19  64 E3        30.46R
$$

COZ017>023-064>068-060700-
...SOUTHWEST COLORADO...

CITY           SKY/WX    TMP DP  RH WIND       PRES   REMARKS
DURANGO        CLEAR     24  16  71 NE5       30.39R WCI  18
CORTEZ         CLEAR     27  21  78 NE8       30.41S WCI  19
PAGOSA SPRINGS CLEAR     16  10  79 CALM      30.40S
TELLURIDE      PTCLDY    18   8  62 SE7       30.42S WCI   9
WOLF CREEK PAS CLEAR     18  -8  32 CALM      30.42S
$$

COZ009-010-012-014-032>034-037-058>063-060700-
...CENTRAL COLORADO...

CITY           SKY/WX    TMP DP  RH WIND       PRES   REMARKS
ASPEN          MOCLDY    14   6  70 S7        30.40S WCI   4
BUENA VISTA    PTCLDY    26   6  42 W10       30.34S WCI  16
COPPER MTN     PTCLDY    16  -4  41 W15G23    30.35S WCI   1
BERTHOUD PASS  NOT AVBL
COTTONWOOD PAS PTCLDY    28   0  29 SW3       30.33F
GUNNISON       PTCLDY    10   3  72 NE5       30.46S WCI   2
KREMMLING      PTCLDY    12   9  85 CALM      30.41S
LEADVILLE      PTCLDY     4  -4  69 NE7       30.36S WCI  -8
SALIDA         PTCLDY    30  11  45 NW9       30.42S WCI  21
SUNLIGHT       PTCLDY    18  12  79 SW3         N/A
WILKERSON PASS MOCLDY    19  -4  35 NW15G22   30.33S WCI   5
$$

COZ069>075-060700-
...SAN LUIS VALLEY/SANGRE DE CRISTO MOUNTAINS...

CITY           SKY/WX    TMP DP  RH WIND       PRES   REMARKS
ALAMOSA        CLEAR     18  14  84 SW3       30.38S
LA VETA PASS   PTCLDY    19   7  58 S12       30.31F WCI   7
SAGUACHE       PTCLDY    25  12  58 NW10      30.40R WCI  15
$$

COZ035-036-038>040-060700-
...NORTHERN COLORADO FRONT RANGE...

CITY           SKY/WX    TMP DP  RH WIND       PRES   REMARKS
DENVER INTL AP PTCLDY    21  14  74 S10       30.25F WCI  10
DMNS CITY PARK   N/A     27  19  73 S7        30.25F WCI  19
AURORA         PTCLDY    25  17  71 S9        30.25F WCI  15
FRONT RANGE AP CLEAR     27  18  69 S15       30.26F WCI  15
ERIE MUNI ARPT PTCLDY    16  12  84 S3        30.25F
BOULDER MUN AP PTCLDY    25  12  58 CALM      30.24F
CENTENNIAL     PTCLDY    26  16  65 S6        30.25F WCI  19
BROOMFIELD     PTCLDY    30  18  59 SW3       30.25F
FORT COLLINS   PTCLDY    25  14  63 CALM      30.26F
LONGMONT       PTCLDY    19  12  74 W3        30.27F
$$

COZ041-046-047-076>085-087-088-060700-
...PIKES PEAK/PALMER DIVIDE AND SOUTHERN FOOTHILLS...

CITY           SKY/WX    TMP DP  RH WIND       PRES   REMARKS
COLO. SPRINGS  CLEAR     23  14  68 NE9       30.28F WCI  13
A. F. ACADEMY  CLEAR     14   9  79 N9        30.27F WCI   2
ELLICOTT       NOT AVBL
FALCON         CLEAR     22  13  67 W7        30.28F WCI  13
FORT CARSON    CLEAR     24  14  64 NW6       30.26F WCI  17
LIMON          PTCLDY     8   5  87 N3        30.28F
MONUMENT HILL  CLEAR     21   9  58 SW9       30.25F WCI  11
TRINIDAD       CLEAR     31  20  63 W8        30.29R WCI  23
$$

COZ042>045-048>051-090-091-060700-
...NORTHEAST COLORADO...

CITY           SKY/WX    TMP DP  RH WIND       PRES   REMARKS
GREELEY ARPT   PTCLDY    25  14  63 CALM      30.25F
AKRON          CLEAR     28  17  63 SW10      30.25F WCI  19
BURLINGTON     CLEAR     26  20  77 W9        30.28S WCI  17
WRAY           CLEAR     26  19  77 W8        30.26F WCI  17
STERLING       CLEAR     28  19  69 S6        30.25F WCI  22
HOLYOKE        CLEAR     28  21  74 W9        30.25S WCI  20
FORT MORGAN    CLEAR     25  19  78 W9        30.27F WCI  15
$$

COZ086-089-092>099-060700-
...SOUTHEAST COLORADO...

CITY           SKY/WX    TMP DP  RH WIND       PRES   REMARKS
PUEBLO         CLEAR     26  22  84 W7        30.29F WCI  18
LA JUNTA       CLEAR     29  21  72 NW6       30.29R WCI  23
LAMAR          CLEAR     24  20  84 W3        30.27S
SPRINGFIELD      N/A     24  21  88 CALM      30.27S
$$


USA.gov is the U.S. government's official web portal to all federal, state and local government web resources and services.